Total_Precipitation_Accumulation
0.17 0.25 0.30 0.30 0.35 0.39 0.40 0.50 0.64 0.73 0.73 0.72 0.65 0.62 0.56 0.57 0.51 0.53 0.56 0.59 0.63 0.82 1.13 1.10 1.20 1.31 1.27 1.25 1.34 1.34 1.23 1.01 1.18 1.21 0.87 0.52 0.38 0.34 0.22 0.18 0.14 0.13 0.09
0.20 0.30 0.33 0.35 0.37 0.43 0.50 0.52 0.64 0.77 0.76 0.81 0.87 0.95 1.02 0.86 0.72 0.78 0.84 0.88 0.97 1.01 1.10 1.15 1.17 1.23 1.26 1.15 1.11 1.19 1.08 0.89 1.05 1.13 1.05 0.58 0.38 0.31 0.24 0.24 0.28 0.25 0.20
0.45 0.40 0.36 0.39 0.40 0.44 0.48 0.52 0.62 0.75 0.79 0.93 1.11 1.21 1.31 1.17 1.19 1.30 1.36 1.35 1.38 1.35 1.33 1.25 1.14 1.02 1.01 0.92 0.93 1.03 1.04 0.92 0.92 1.08 1.20 0.87 0.57 0.49 0.35 0.35 0.35 0.35 0.34
0.52 0.48 0.47 0.50 0.54 0.62 0.69 0.77 0.82 0.89 1.00 1.15 1.33 1.42 1.44 1.45 1.61 1.81 1.72 1.49 1.34 1.19 1.05 0.94 0.91 0.85 0.84 0.75 0.73 0.80 0.81 0.79 0.77 0.85 0.97 1.05 1.04 0.91 0.49 0.31 0.27 0.32 0.37
0.56 0.62 0.68 0.66 0.66 0.78 0.87 0.99 1.01 1.05 1.10 1.17 1.26 1.36 1.41 1.42 1.43 1.40 1.29 1.14 0.99 0.85 0.73 0.66 0.65 0.62 0.62 0.56 0.55 0.55 0.55 0.58 0.61 0.70 0.81 0.92 1.01 1.04 0.88 0.52 0.46 0.48 0.45
0.59 0.66 0.67 0.70 0.76 0.82 0.79 0.77 0.78 0.83 0.89 0.93 0.98 1.02 1.00 0.98 0.92 0.83 0.76 0.69 0.62 0.50 0.40 0.37 0.40 0.46 0.52 0.48 0.45 0.44 0.45 0.50 0.58 0.65 0.71 0.79 0.79 0.85 0.94 0.74 0.61 0.54 0.47
0.48 0.58 0.59 0.61 0.65 0.67 0.63 0.60 0.64 0.68 0.62 0.58 0.60 0.63 0.63 0.61 0.58 0.58 0.55 0.52 0.46 0.37 0.31 0.28 0.29 0.36 0.43 0.40 0.36 0.38 0.45 0.53 0.59 0.63 0.69 0.76 0.77 0.82 0.94 0.90 0.81 0.72 0.68
0.40 0.50 0.58 0.61 0.60 0.56 0.55 0.54 0.55 0.55 0.50 0.46 0.46 0.48 0.51 0.50 0.46 0.47 0.41 0.38 0.37 0.36 0.35 0.31 0.32 0.33 0.37 0.35 0.36 0.35 0.41 0.49 0.54 0.53 0.65 0.76 0.81 0.89 1.02 1.05 0.99 0.87 0.81
0.40 0.41 0.43 0.46 0.46 0.43 0.42 0.46 0.54 0.56 0.55 0.53 0.49 0.44 0.44 0.43 0.38 0.35 0.33 0.31 0.32 0.33 0.37 0.36 0.36 0.40 0.44 0.46 0.51 0.53 0.57 0.69 0.74 0.76 0.82 0.89 0.86 0.85 0.90 0.95 0.95 0.93 0.81
0.22 0.21 0.21 0.22 0.23 0.27 0.33 0.41 0.44 0.44 0.46 0.47 0.49 0.47 0.43 0.36 0.31 0.27 0.28 0.28 0.28 0.30 0.35 0.41 0.42 0.43 0.43 0.46 0.56 0.74 0.88 0.94 0.96 0.97 1.01 1.03 0.98 0.94 0.96 0.92 0.93 0.99 0.90
0.12 0.16 0.17 0.21 0.23 0.27 0.34 0.42 0.44 0.44 0.45 0.44 0.44 0.44 0.41 0.39 0.33 0.28 0.27 0.27 0.29 0.32 0.35 0.39 0.42 0.43 0.44 0.45 0.51 0.64 0.81 0.89 0.90 0.91 0.96 0.93 0.88 0.85 0.81 0.81 0.86 0.92 0.89
0.15 0.17 0.17 0.23 0.28 0.28 0.29 0.35 0.39 0.44 0.53 0.61 0.69 0.70 0.62 0.53 0.43 0.33 0.29 0.28 0.30 0.33 0.33 0.32 0.33 0.35 0.38 0.43 0.51 0.61 0.69 0.74 0.74 0.71 0.68 0.66 0.62 0.60 0.59 0.62 0.63 0.65 0.74
0.11 0.11 0.14 0.20 0.26 0.30 0.32 0.36 0.39 0.43 0.52 0.67 0.91 1.02 0.93 0.79 0.61 0.42 0.28 0.23 0.22 0.25 0.26 0.26 0.29 0.36 0.47 0.55 0.60 0.63 0.65 0.64 0.64 0.66 0.66 0.57 0.50 0.48 0.46 0.47 0.46 0.45 0.53
0.09 0.08 0.11 0.17 0.22 0.29 0.37 0.42 0.45 0.44 0.50 0.62 0.78 0.84 0.77 0.67 0.54 0.36 0.22 0.17 0.16 0.17 0.21 0.26 0.32 0.40 0.48 0.56 0.59 0.59 0.56 0.52 0.47 0.48 0.50 0.49 0.44 0.40 0.38 0.37 0.36 0.35 0.42
0.10 0.08 0.11 0.16 0.19 0.23 0.30 0.32 0.28 0.23 0.28 0.39 0.45 0.50 0.44 0.33 0.28 0.23 0.18 0.15 0.15 0.17 0.20 0.24 0.30 0.34 0.37 0.40 0.36 0.32 0.31 0.29 0.25 0.25 0.27 0.30 0.33 0.35 0.32 0.30 0.33 0.35 0.36
0.08 0.08 0.11 0.16 0.17 0.16 0.17 0.13 0.12 0.12 0.16 0.23 0.27 0.32 0.33 0.26 0.20 0.15 0.11 0.09 0.11 0.13 0.17 0.21 0.26 0.26 0.25 0.30 0.20 0.11 0.11 0.13 0.15 0.18 0.20 0.23 0.23 0.26 0.28 0.28 0.28 0.31 0.31
0.03 0.03 0.06 0.08 0.06 0.05 0.05 0.05 0.07 0.10 0.15 0.19 0.24 0.31 0.33 0.28 0.23 0.15 0.12 0.10 0.10 0.10 0.12 0.13 0.13 0.14 0.17 0.18 0.13 0.05 0.05 0.08 0.09 0.10 0.12 0.14 0.18 0.19 0.18 0.18 0.18 0.18 0.20
0.02 0.01 0.01 0.01 0.01 0.01 0.01 0.03 0.04 0.09 0.13 0.18 0.22 0.26 0.30 0.26 0.23 0.21 0.21 0.20 0.16 0.13 0.11 0.10 0.09 0.12 0.14 0.11 0.10 0.06 0.05 0.08 0.09 0.09 0.07 0.07 0.07 0.09 0.10 0.11 0.10 0.09 0.09
0.01 0.01 0.01 0.01 0.01 0.01 0.01 0.03 0.07 0.08 0.10 0.16 0.22 0.25 0.28 0.27 0.25 0.26 0.26 0.24 0.21 0.17 0.14 0.12 0.11 0.13 0.15 0.12 0.08 0.06 0.07 0.10 0.11 0.10 0.08 0.05 0.03 0.04 0.05 0.08 0.09 0.08 0.07
0.00 0.01 0.01 0.01 0.01 0.02 0.05 0.08 0.09 0.10 0.13 0.16 0.23 0.28 0.29 0.31 0.31 0.32 0.31 0.28 0.27 0.22 0.18 0.15 0.15 0.17 0.20 0.19 0.13 0.08 0.10 0.14 0.13 0.13 0.09 0.05 0.02 0.02 0.03 0.07 0.07 0.07 0.06
0.01 0.01 0.02 0.03 0.05 0.08 0.11 0.12 0.11 0.12 0.12 0.14 0.20 0.27 0.30 0.33 0.36 0.39 0.39 0.36 0.34 0.32 0.29 0.25 0.21 0.22 0.25 0.27 0.21 0.13 0.15 0.19 0.17 0.15 0.09 0.03 0.01 0.02 0.03 0.05 0.07 0.06 0.04
0.01 0.01 0.02 0.03 0.05 0.09 0.11 0.13 0.12 0.11 0.13 0.17 0.23 0.29 0.31 0.27 0.29 0.40 0.44 0.45 0.46 0.41 0.39 0.36 0.31 0.29 0.30 0.30 0.27 0.20 0.18 0.22 0.23 0.21 0.12 0.03 0.01 0.01 0.02 0.04 0.03 0.02 0.03
0.02 0.02 0.03 0.05 0.09 0.12 0.16 0.17 0.15 0.17 0.19 0.22 0.27 0.32 0.32 0.32 0.37 0.43 0.47 0.51 0.53 0.50 0.46 0.46 0.43 0.39 0.36 0.33 0.30 0.25 0.20 0.22 0.27 0.23 0.17 0.06 0.02 0.01 0.01 0.01 0.01 0.01 0.01
0.03 0.04 0.05 0.08 0.11 0.14 0.18 0.23 0.25 0.27 0.28 0.28 0.29 0.31 0.33 0.34 0.37 0.45 0.48 0.52 0.56 0.59 0.57 0.54 0.52 0.50 0.44 0.39 0.35 0.29 0.24 0.25 0.27 0.22 0.16 0.06 0.02 0.01 0.01 0.01 0.00 0.00 0.00
0.04 0.06 0.09 0.13 0.15 0.19 0.24 0.26 0.29 0.34 0.36 0.36 0.33 0.32 0.33 0.36 0.42 0.45 0.50 0.51 0.57 0.59 0.60 0.58 0.57 0.57 0.54 0.45 0.41 0.37 0.30 0.30 0.31 0.22 0.13 0.06 0.01 0.01 0.01 0.01 0.00 0.00 0.00
0.06 0.08 0.10 0.13 0.15 0.19 0.26 0.28 0.34 0.41 0.44 0.44 0.44 0.40 0.36 0.37 0.40 0.43 0.43 0.42 0.44 0.45 0.46 0.48 0.49 0.49 0.45 0.43 0.38 0.33 0.29 0.30 0.29 0.20 0.10 0.04 0.01 0.01 0.01 0.01 0.00 0.00 0.00